YB2NDX-15 Weather Reports


time (UTC)temp
C
wind
direction
speed
KPH
gust
KPH
rain 1hr
cm
rain 24hr
cm
rain mn
cm
humidity
%
barometer
mb
20260507140822 28 0.0 0.0 0.00 0.00 0.00 1008.6
20260507135815 28 0.0 0.0 0.00 0.00 0.00 1008.5
20260507134806 28 0.0 0.0 0.00 0.00 0.00 1008.5
20260507133759 28 0.0 0.0 0.00 0.00 0.00 1008.5
20260507132753 28 0.0 0.0 0.00 0.00 0.00 1008.4
20260507131742 29 0.0 0.0 0.00 0.00 0.00 1008.3
20260507130736 29 0.0 0.0 0.00 0.00 0.00 1008.2
20260507124724 29 0.0 0.0 0.00 0.00 0.00 1007.9
20260507123716 30 0.0 0.0 0.00 0.00 0.00 1007.7
20260507122710 30 0.0 0.0 0.00 0.00 0.00 1007.6
20260507121704 30 0.0 0.0 0.00 0.00 0.00 1007.3
20260507120657 30 0.0 0.0 0.00 0.00 0.00 1007.2
20260507115651 30 0.0 0.0 0.00 0.00 0.00 1007.1
20260507114645 30 0.0 0.0 0.00 0.00 0.00 1006.9
20260507113639 30 0.0 0.0 0.00 0.00 0.00 1006.7
20260507112633 30 0.0 0.0 0.00 0.00 0.00 1006.6
20260507111626 31 0.0 0.0 0.00 0.00 0.00 1006.5
20260507110619 31 0.0 0.0 0.00 0.00 0.00 1006.4
20260507105613 31 0.0 0.0 0.00 0.00 0.00 1006.4
20260507104606 31 0.0 0.0 0.00 0.00 0.00 1006.3
20260507103559 31 0.0 0.0 0.00 0.00 0.00 1006.1
20260507102552 32 0.0 0.0 0.00 0.00 0.00 1006.0
20260507101546 32 0.0 0.0 0.00 0.00 0.00 1005.8
20260507100539 32 0.0 0.0 0.00 0.00 0.00 1005.8
20260507095532 33 0.0 0.0 0.00 0.00 0.00 1005.8
20260507094526 33 0.0 0.0 0.00 0.00 0.00 1005.7
20260507093519 33 0.0 0.0 0.00 0.00 0.00 1005.7
20260507092513 34 0.0 0.0 0.00 0.00 0.00 1005.7
20260507091506 34 0.0 0.0 0.00 0.00 0.00 1005.7
20260507090500 35 0.0 0.0 0.00 0.00 0.00 1005.5
20260507085453 35 0.0 0.0 0.00 0.00 0.00 1005.5
20260507082434 45 0.0 0.0 0.00 0.00 0.00 1006.3
20260507081427 49 0.0 0.0 0.00 0.00 0.00 1006.6
20260507080421 44 0.0 0.0 0.00 0.00 0.00 1007.1
20260507074408 36 0.0 0.0 0.00 0.00 0.00 1005.8
20260507072355 36 0.0 0.0 0.00 0.00 0.00 1005.9
20260507071348 36 0.0 0.0 0.00 0.00 0.00 1006.1
20260507070341 35 0.0 0.0 0.00 0.00 0.00 1006.1
20260507064329 36 0.0 0.0 0.00 0.00 0.00 1006.3
20260507063322 36 0.0 0.0 0.00 0.00 0.00 1006.6
20260507062316 36 0.0 0.0 0.00 0.00 0.00 1007.0
20260507061310 36 0.0 0.0 0.00 0.00 0.00 1007.1
20260507060304 36 0.0 0.0 0.00 0.00 0.00 1007.2
20260507055258 37 0.0 0.0 0.00 0.00 0.00 1007.7
20260507054251 37 0.0 0.0 0.00 0.00 0.00 1007.9
20260507053245 37 0.0 0.0 0.00 0.00 0.00 1007.9
20260507052238 35 0.0 0.0 0.00 0.00 0.00 1007.9
20260507050225 36 0.0 0.0 0.00 0.00 0.00 1008.2
20260507045219 36 0.0 0.0 0.00 0.00 0.00 1008.4
20260507044213 36 0.0 0.0 0.00 0.00 0.00 1008.5
20260507043206 36 0.0 0.0 0.00 0.00 0.00 1008.6
20260507042200 36 0.0 0.0 0.00 0.00 0.00 1008.6
20260507041154 35 0.0 0.0 0.00 0.00 0.00 1008.7
20260507040147 35 0.0 0.0 0.00 0.00 0.00 1008.9
20260507035140 35 0.0 0.0 0.00 0.00 0.00 1009.0
20260507034133 35 0.0 0.0 0.00 0.00 0.00 1009.2
20260507033127 35 0.0 0.0 0.00 0.00 0.00 1009.4
20260507032121 35 0.0 0.0 0.00 0.00 0.00 1009.4
20260507031115 34 0.0 0.0 0.00 0.00 0.00 1009.5
20260507025102 33 0.0 0.0 0.00 0.00 0.00 1009.4
20260507024056 33 0.0 0.0 0.00 0.00 0.00 1009.5
20260507023050 33 0.0 0.0 0.00 0.00 0.00 1009.4
20260507021036 32 0.0 0.0 0.00 0.00 0.00 1009.3
20260507020030 32 0.0 0.0 0.00 0.00 0.00 1009.3
20260507015024 31 0.0 0.0 0.00 0.00 0.00 1009.4
20260507014018 31 0.0 0.0 0.00 0.00 0.00 1009.4
20260507013012 31 0.0 0.0 0.00 0.00 0.00 1009.4
20260507012005 30 0.0 0.0 0.00 0.00 0.00 1009.4
20260507010959 30 0.0 0.0 0.00 0.00 0.00 1009.4
20260507005953 30 0.0 0.0 0.00 0.00 0.00 1009.4
20260507004947 30 0.0 0.0 0.00 0.00 0.00 1009.4
20260507003940 30 0.0 0.0 0.00 0.00 0.00 1009.5
20260507002934 29 0.0 0.0 0.00 0.00 0.00 1009.4
20260507001928 28 0.0 0.0 0.00 0.00 0.00 1009.3
20260507000922 28 0.0 0.0 0.00 0.00 0.00 1009.2
20260506235915 28 0.0 0.0 0.00 0.00 0.00 1009.1
20260506234909 27 0.0 0.0 0.00 0.00 0.00 1009.0
20260506233902 27 0.0 0.0 0.00 0.00 0.00 1008.9
20260506232856 27 0.0 0.0 0.00 0.00 0.00 1008.8
20260506231850 26 0.0 0.0 0.00 0.00 0.00 1008.7
20260506230843 26 0.0 0.0 0.00 0.00 0.00 1008.7
20260506225837 26 0.0 0.0 0.00 0.00 0.00 1008.7
20260506224831 26 0.0 0.0 0.00 0.00 0.00 1008.6
20260506223824 26 0.0 0.0 0.00 0.00 0.00 1008.6
20260506222818 26 0.0 0.0 0.00 0.00 0.00 1008.5
20260506221811 26 0.0 0.0 0.00 0.00 0.00 1008.4
20260506220805 26 0.0 0.0 0.00 0.00 0.00 1008.3
20260506215759 26 0.0 0.0 0.00 0.00 0.00 1008.2
20260506214753 26 0.0 0.0 0.00 0.00 0.00 1008.0
20260506213746 26 0.0 0.0 0.00 0.00 0.00 1008.0
20260506212740 26 0.0 0.0 0.00 0.00 0.00 1008.0
20260506211733 26 0.0 0.0 0.00 0.00 0.00 1007.9
20260506210727 26 0.0 0.0 0.00 0.00 0.00 1007.9
20260506205722 26 0.0 0.0 0.00 0.00 0.00 1007.8
20260506204715 26 0.0 0.0 0.00 0.00 0.00 1007.7
20260506203709 26 0.0 0.0 0.00 0.00 0.00 1007.7
20260506202703 26 0.0 0.0 0.00 0.00 0.00 1007.7
20260506201657 26 0.0 0.0 0.00 0.00 0.00 1007.6
20260506200650 26 0.0 0.0 0.00 0.00 0.00 1007.6
20260506195643 27 0.0 0.0 0.00 0.00 0.00 1007.5
20260506194637 27 0.0 0.0 0.00 0.00 0.00 1007.6
20260506193630 27 0.0 0.0 0.00 0.00 0.00 1007.6
20260506192624 27 0.0 0.0 0.00 0.00 0.00 1007.6
20260506191618 27 0.0 0.0 0.00 0.00 0.00 1007.7
20260506190611 27 0.0 0.0 0.00 0.00 0.00 1007.7
20260506185605 27 0.0 0.0 0.00 0.00 0.00 1007.7
20260506184559 27 0.0 0.0 0.00 0.00 0.00 1007.7
20260506183552 27 0.0 0.0 0.00 0.00 0.00 1007.8
20260506182547 27 0.0 0.0 0.00 0.00 0.00 1007.8
20260506181540 27 0.0 0.0 0.00 0.00 0.00 1007.9
20260506180534 27 0.0 0.0 0.00 0.00 0.00 1008.0
20260506175528 27 0.0 0.0 0.00 0.00 0.00 1008.1
20260506174522 27 0.0 0.0 0.00 0.00 0.00 1008.2
20260506173515 27 0.0 0.0 0.00 0.00 0.00 1008.2
20260506171501 27 0.0 0.0 0.00 0.00 0.00 1008.4
20260506170455 28 0.0 0.0 0.00 0.00 0.00 1008.5
20260506165448 28 0.0 0.0 0.00 0.00 0.00 1008.5
20260506164442 28 0.0 0.0 0.00 0.00 0.00 1008.6
20260506163436 28 0.0 0.0 0.00 0.00 0.00 1008.5
20260506162429 28 0.0 0.0 0.00 0.00 0.00 1008.5
20260506161422 28 0.0 0.0 0.00 0.00 0.00 1008.5
20260506160416 28 0.0 0.0 0.00 0.00 0.00 1008.4
20260506155409 28 0.0 0.0 0.00 0.00 0.00 1008.4
20260506153356 28 0.0 0.0 0.00 0.00 0.00 1008.6
20260506152350 28 0.0 0.0 0.00 0.00 0.00 1008.5
20260506151344 28 0.0 0.0 0.00 0.00 0.00 1008.6
20260506150338 28 0.0 0.0 0.00 0.00 0.00 1008.6
20260506145332 28 0.0 0.0 0.00 0.00 0.00 1008.6
20260506144326 28 0.0 0.0 0.00 0.00 0.00 1008.5
20260506143320 28 0.0 0.0 0.00 0.00 0.00 1008.6
20260506142313 28 0.0 0.0 0.00 0.00 0.00 1008.6
20260506141307 28 0.0 0.0 0.00 0.00 0.00 1008.5